TimeEST,TemperatureF,Dew PointF,Humidity,Sea Level PressureIn,VisibilityMPH,Wind Direction,Wind SpeedMPH,Gust SpeedMPH,PrecipitationIn,Events,Conditions,WindDirDegrees,DateUTC
12:15 AM,62.8,55.6,77,29.92,10.0,SW,19.6,25.3,N/A,,Overcast,220,2012-12-04 05:15:00
12:34 AM,62.8,55.6,77,29.92,10.0,SSW,17.3,24.2,N/A,,Overcast,210,2012-12-04 05:34:00
12:55 AM,62.6,55.6,78,29.92,10.0,SSW,11.5,21.9,N/A,,Overcast,210,2012-12-04 05:55:00
1:14 AM,62.6,55.8,78,29.92,10.0,SSW,13.8,20.7,N/A,,Overcast,210,2012-12-04 06:14:00
1:35 AM,62.6,55.8,78,29.91,10.0,SSW,13.8,19.6,N/A,,Overcast,210,2012-12-04 06:35:00
1:55 AM,61.5,56.3,83,29.91,7.0,SSW,15.0,24.2,N/A,Rain,Rain,210,2012-12-04 06:55:00
2:14 AM,60.8,56.5,86,29.91,10.0,SSW,11.5,20.7,N/A,,Overcast,210,2012-12-04 07:14:00
2:35 AM,61.0,56.1,84,29.91,10.0,SSW,11.5,18.4,N/A,,Overcast,210,2012-12-04 07:35:00
2:54 AM,60.8,55.8,83,29.92,10.0,SW,12.7,18.4,N/A,,Overcast,220,2012-12-04 07:54:00
3:14 AM,61.2,55.6,82,29.91,10.0,SW,12.7,19.6,N/A,,Overcast,220,2012-12-04 08:14:00
3:54 AM,61.0,55.4,82,29.91,10.0,SSW,8.1,16.1,N/A,,Overcast,210,2012-12-04 08:54:00
4:14 AM,60.8,54.7,80,29.90,10.0,SSW,10.4,-,N/A,,Overcast,200,2012-12-04 09:14:00
4:35 AM,59.7,54.9,84,29.90,7.0,SW,11.5,17.3,N/A,Rain,Light Rain,220,2012-12-04 09:35:00
4:54 AM,59.0,55.4,88,29.91,5.0,SW,10.4,-,N/A,Rain,Rain,220,2012-12-04 09:54:00
5:14 AM,58.5,55.4,90,29.91,7.0,SSW,6.9,-,N/A,Rain,Light Rain,210,2012-12-04 10:14:00
5:35 AM,58.1,55.0,90,29.91,5.0,SW,6.9,-,N/A,Rain,Light Rain,220,2012-12-04 10:35:00
5:54 AM,58.1,54.9,89,29.91,7.0,SW,9.2,-,N/A,Rain,Heavy Rain,230,2012-12-04 10:54:00
6:15 AM,54.1,51.8,92,29.94,4.0,NNW,9.2,-,N/A,Rain,Rain,330,2012-12-04 11:15:00
6:35 AM,52.5,50.4,92,29.95,5.0,NW,10.4,-,N/A,Rain,Rain,320,2012-12-04 11:35:00
6:54 AM,50.7,47.8,90,29.98,5.0,NW,8.1,-,N/A,Rain,Heavy Rain,320,2012-12-04 11:54:00
7:15 AM,49.8,47.1,90,30.00,4.0,NW,10.4,19.6,N/A,Rain,Heavy Rain,320,2012-12-04 12:15:00
7:34 AM,48.4,44.6,87,29.99,2.5,NNW,16.1,21.9,N/A,,Unknown,340,2012-12-04 12:34:00
7:55 AM,47.5,44.6,90,30.01,4.0,Calm,Calm,-,N/A,Rain,Light Rain,0,2012-12-04 12:55:00
8:15 AM,47.8,45.5,92,30.01,7.0,NW,5.8,-,N/A,Rain,Light Rain,310,2012-12-04 13:15:00
8:34 AM,47.7,45.0,90,30.01,7.0,NW,5.8,-,N/A,Rain,Light Rain,310,2012-12-04 13:34:00
8:55 AM,47.3,43.9,88,30.01,7.0,NW,4.6,-,N/A,Rain,Light Rain,320,2012-12-04 13:55:00
9:15 AM,46.8,42.8,86,30.01,10.0,NNW,4.6,-,N/A,Rain,Light Rain,340,2012-12-04 14:15:00
9:34 AM,46.6,43.0,87,30.02,10.0,Calm,Calm,-,N/A,Rain,Light Rain,0,2012-12-04 14:34:00
9:55 AM,46.6,43.9,90,30.04,10.0,West,3.5,-,N/A,Rain,Light Rain,280,2012-12-04 14:55:00
10:15 AM,46.6,43.9,90,30.04,7.0,Calm,Calm,-,N/A,Rain,Light Rain,0,2012-12-04 15:15:00
10:34 AM,47.1,44.2,90,30.04,10.0,SW,4.6,-,N/A,Rain,Light Rain,230,2012-12-04 15:34:00
10:55 AM,47.3,44.4,90,30.04,10.0,WSW,5.8,-,N/A,,Overcast,240,2012-12-04 15:55:00
11:15 AM,47.7,44.6,89,30.04,10.0,WSW,5.8,-,N/A,,Scattered Clouds,250,2012-12-04 16:15:00
11:34 AM,47.7,44.6,89,30.03,10.0,WSW,5.8,-,N/A,,Mostly Cloudy,250,2012-12-04 16:34:00
11:55 AM,48.0,44.6,88,30.03,10.0,West,6.9,-,N/A,,Overcast,260,2012-12-04 16:55:00
12:14 PM,48.2,44.8,88,30.01,10.0,West,4.6,-,N/A,,Overcast,270,2012-12-04 17:14:00
12:34 PM,48.2,44.1,86,30.01,10.0,West,8.1,-,N/A,,Overcast,260,2012-12-04 17:34:00
1:14 PM,48.6,43.7,83,30.01,10.0,West,9.2,-,N/A,,Scattered Clouds,270,2012-12-04 18:14:00
1:34 PM,48.6,43.7,83,30.01,10.0,West,10.4,-,N/A,,Mostly Cloudy,270,2012-12-04 18:34:00
1:55 PM,49.1,43.7,82,30.02,10.0,West,10.4,-,N/A,,Mostly Cloudy,280,2012-12-04 18:55:00
2:14 PM,49.3,42.3,77,30.02,10.0,West,10.4,-,N/A,,Overcast,280,2012-12-04 19:14:00
2:34 PM,-9999,-9999,N/A,-9999,-9999.0,North,-9999.0,-,N/A,,Unknown,0,2012-12-04 19:34:00
2:55 PM,49.5,39.7,69,30.03,-9999.0,West,13.8,-,N/A,,Overcast,280,2012-12-04 19:55:00
3:15 PM,49.5,39.2,68,30.03,10.0,West,9.2,-,N/A,,Mostly Cloudy,270,2012-12-04 20:15:00
3:35 PM,49.1,39.0,68,30.03,10.0,West,10.4,-,N/A,,Scattered Clouds,270,2012-12-04 20:35:00
3:55 PM,48.4,38.5,69,30.04,10.0,West,8.1,-,N/A,,Clear,270,2012-12-04 20:55:00
4:15 PM,48.9,37.6,65,30.04,10.0,West,6.9,-,N/A,,Clear,270,2012-12-04 21:15:00
4:35 PM,46.4,37.8,72,30.05,10.0,West,6.9,-,N/A,,Clear,260,2012-12-04 21:35:00
4:55 PM,45.9,36.9,71,30.06,10.0,West,6.9,-,N/A,,Clear,260,2012-12-04 21:55:00
5:15 PM,44.1,36.0,73,30.07,10.0,West,9.2,-,N/A,,Clear,270,2012-12-04 22:15:00
5:35 PM,44.4,34.5,68,30.07,10.0,West,8.1,-,N/A,,Clear,270,2012-12-04 22:35:00
5:54 PM,43.9,33.8,68,30.08,10.0,West,8.1,-,N/A,,Clear,270,2012-12-04 22:54:00
6:15 PM,41.7,33.3,72,30.08,10.0,West,6.9,-,N/A,,Clear,260,2012-12-04 23:15:00
6:35 PM,41.4,33.1,72,30.09,10.0,WSW,5.8,-,N/A,,Clear,250,2012-12-04 23:35:00
6:55 PM,40.8,32.0,71,30.09,10.0,WSW,4.6,-,N/A,,Clear,240,2012-12-04 23:55:00
7:15 PM,39.9,32.0,73,30.09,10.0,WSW,6.9,-,N/A,,Clear,250,2012-12-05 00:15:00
7:34 PM,41.2,32.9,72,30.09,10.0,WSW,6.9,-,N/A,,Clear,250,2012-12-05 00:34:00
7:55 PM,40.1,32.7,75,30.09,10.0,WSW,6.9,-,N/A,,Clear,250,2012-12-05 00:55:00
8:14 PM,40.1,32.9,75,30.10,10.0,WSW,6.9,-,N/A,,Clear,250,2012-12-05 01:14:00
8:35 PM,40.1,32.9,75,30.10,10.0,West,8.1,-,N/A,,Clear,260,2012-12-05 01:35:00
8:55 PM,39.4,32.9,78,30.11,10.0,West,6.9,-,N/A,,Clear,260,2012-12-05 01:55:00
9:14 PM,39.4,32.4,76,30.11,10.0,WSW,5.8,-,N/A,,Clear,250,2012-12-05 02:14:00
9:35 PM,38.8,32.2,77,30.11,10.0,WSW,6.9,-,N/A,,Clear,250,2012-12-05 02:35:00
9:55 PM,39.2,32.0,75,30.12,10.0,West,5.8,-,N/A,,Clear,270,2012-12-05 02:55:00
10:14 PM,39.2,32.4,76,30.12,10.0,West,6.9,-,N/A,,Clear,280,2012-12-05 03:14:00
10:35 PM,39.6,32.9,77,30.13,10.0,West,8.1,-,N/A,,Clear,280,2012-12-05 03:35:00
10:55 PM,40.1,33.1,76,30.13,10.0,WNW,5.8,-,N/A,,Clear,300,2012-12-05 03:55:00
11:14 PM,40.1,32.9,75,30.13,10.0,WNW,8.1,-,N/A,,Clear,290,2012-12-05 04:14:00
11:35 PM,40.1,32.0,73,30.15,10.0,West,5.8,-,N/A,,Clear,280,2012-12-05 04:35:00
11:54 PM,39.4,31.8,74,30.16,10.0,West,5.8,-,N/A,,Clear,270,2012-12-05 04:54:00